JST663 YAYE-YSSY

Flight info

Callsign JST663
Flight time N/A
Altitude 37000
Route AYE G222 PKS/N0342F190 W440 AKMIR W113 ODALE
Aircraft A320/M-SDE3FGHIRWY/LB1

Departure

Time 2026-05-04 05:09
Airport Ayers Rock Connellan Airport (YAYE)

Arrival

Time N/A
Airport Sydney Kingsford Smith International Airport (YSSY)
Time Latitude Longitude Altitude Speed Heading
2026-05-04 04:38 -25.19004 130.97688 1622 ft 0 kts 266°
2026-05-04 05:03 -25.19003 130.97687 1622 ft 0 kts 278°
2026-05-04 05:03 -25.18995 130.97687 1622 ft 3 kts 355°
2026-05-04 05:04 -25.18867 130.97791 1623 ft 10 kts 40°
2026-05-04 05:04 -25.18810 130.97845 1626 ft 12 kts 40°
2026-05-04 05:04 -25.18758 130.97888 1623 ft 9 kts 25°
2026-05-04 05:06 -25.18121 130.97088 1615 ft 26 kts 310°
2026-05-04 05:06 -25.18003 130.96932 1615 ft 25 kts 309°
2026-05-04 05:06 -25.17911 130.96807 1619 ft 17 kts 310°
2026-05-04 05:07 -25.17859 130.96717 1617 ft 11 kts 272°
2026-05-04 05:07 -25.17828 130.96679 1619 ft 7 kts 41°
2026-05-04 05:07 -25.17839 130.96714 1622 ft 6 kts 130°
2026-05-04 05:09 -25.21157 131.02750 3805 ft 180 kts 112°
2026-05-04 05:09 -25.21625 131.04127 3987 ft 202 kts 112°
2026-05-04 05:10 -25.22151 131.05658 4255 ft 222 kts 112°
2026-05-04 05:10 -25.22739 131.07332 4542 ft 246 kts 116°
2026-05-04 05:10 -25.23558 131.09061 5043 ft 260 kts 122°
2026-05-04 05:10 -25.24520 131.10771 5811 ft 265 kts 124°
2026-05-04 05:11 -25.25545 131.12512 6481 ft 274 kts 125°
2026-05-04 05:11 -25.26588 131.14283 7121 ft 283 kts 124°
2026-05-04 05:11 -25.27660 131.16130 7873 ft 287 kts 124°
2026-05-04 05:11 -25.28730 131.18003 8608 ft 291 kts 123°
2026-05-04 05:12 -25.29810 131.19919 9325 ft 296 kts 123°
2026-05-04 05:12 -25.30900 131.21874 10024 ft 301 kts 123°
2026-05-04 05:12 -25.32030 131.23907 10324 ft 321 kts 123°
2026-05-04 05:12 -25.33240 131.26087 10499 ft 342 kts 123°
2026-05-04 05:13 -25.34505 131.28361 10993 ft 350 kts 123°
2026-05-04 05:13 -25.35788 131.30667 11607 ft 354 kts 123°
2026-05-04 05:13 -25.37069 131.32973 12230 ft 358 kts 123°
2026-05-04 05:13 -25.38379 131.35332 12861 ft 362 kts 123°
2026-05-04 05:14 -25.39702 131.37719 13473 ft 366 kts 123°
2026-05-04 05:14 -25.41041 131.40135 14087 ft 370 kts 123°
2026-05-04 05:14 -25.42394 131.42576 14630 ft 374 kts 123°
2026-05-04 05:14 -25.43761 131.45036 15175 ft 377 kts 123°
2026-05-04 05:15 -25.45140 131.47520 15712 ft 380 kts 123°
2026-05-04 05:15 -25.46529 131.50024 16252 ft 383 kts 123°
2026-05-04 05:15 -25.47928 131.52554 16795 ft 387 kts 123°
2026-05-04 05:15 -25.48861 131.54241 17155 ft 389 kts 123°
2026-05-04 05:16 -25.50278 131.56804 17691 ft 392 kts 123°
2026-05-04 05:16 -25.51712 131.59399 18242 ft 395 kts 123°
2026-05-04 05:16 -25.53151 131.62005 18742 ft 399 kts 123°
2026-05-04 05:16 -25.55073 131.65497 19388 ft 403 kts 123°
2026-05-04 05:17 -25.56540 131.68165 19896 ft 406 kts 123°
2026-05-04 05:17 -25.57537 131.69975 20257 ft 408 kts 123°
2026-05-04 05:17 -25.59504 131.73538 20916 ft 411 kts 123°
2026-05-04 05:17 -25.61003 131.76254 21412 ft 414 kts 123°
2026-05-04 05:18 -25.62001 131.78061 21732 ft 416 kts 123°
2026-05-04 05:18 -25.63516 131.80811 22185 ft 420 kts 123°
2026-05-04 05:18 -25.65044 131.83585 22633 ft 423 kts 123°
2026-05-04 05:18 -25.66579 131.86380 23087 ft 427 kts 123°
2026-05-04 05:19 -25.68126 131.89203 23548 ft 430 kts 123°
2026-05-04 05:19 -25.69682 131.92042 23956 ft 433 kts 123°
2026-05-04 05:19 -25.71250 131.94907 24352 ft 434 kts 123°
2026-05-04 05:19 -25.72819 131.97773 24732 ft 437 kts 123°
2026-05-04 05:20 -25.74405 132.00664 25064 ft 440 kts 123°
2026-05-04 05:20 -25.76007 132.03579 25377 ft 444 kts 123°
2026-05-04 05:20 -25.77618 132.06518 25707 ft 447 kts 123°
2026-05-04 05:20 -25.79237 132.09481 26039 ft 450 kts 123°
2026-05-04 05:21 -25.80863 132.12463 26364 ft 453 kts 123°
2026-05-04 05:21 -25.82496 132.15464 26689 ft 456 kts 123°
2026-05-04 05:21 -25.84140 132.18484 27023 ft 458 kts 123°
2026-05-04 05:21 -25.85772 132.21479 27355 ft 461 kts 123°
2026-05-04 05:22 -25.87439 132.24530 27641 ft 464 kts 123°
2026-05-04 05:22 -25.89118 132.27606 27947 ft 466 kts 123°
2026-05-04 05:22 -25.90803 132.30691 28248 ft 469 kts 123°
2026-05-04 05:22 -25.92499 132.33808 28560 ft 472 kts 123°
2026-05-04 05:23 -25.94204 132.36940 28861 ft 474 kts 123°
2026-05-04 05:23 -25.95913 132.40088 29157 ft 477 kts 123°
2026-05-04 05:23 -25.97633 132.43265 29429 ft 480 kts 123°
2026-05-04 05:23 -25.99361 132.46459 29703 ft 483 kts 123°
2026-05-04 05:24 -26.01101 132.49668 30001 ft 486 kts 123°
2026-05-04 05:24 -26.02848 132.52889 30396 ft 485 kts 123°
2026-05-04 05:24 -26.04594 132.56107 30746 ft 485 kts 123°
2026-05-04 05:24 -26.06333 132.59323 31089 ft 485 kts 123°
2026-05-04 05:25 -26.08068 132.62537 31432 ft 485 kts 122°
2026-05-04 05:25 -26.09807 132.65763 31758 ft 486 kts 122°
2026-05-04 05:25 -26.11546 132.68994 32111 ft 486 kts 122°
2026-05-04 05:25 -26.13258 132.72177 32451 ft 486 kts 122°
2026-05-04 05:26 -26.14994 132.75406 32797 ft 486 kts 122°
2026-05-04 05:26 -26.16732 132.78636 33155 ft 486 kts 122°
2026-05-04 05:26 -26.18475 132.81872 33510 ft 486 kts 122°
2026-05-04 05:26 -26.20215 132.85107 33867 ft 486 kts 122°
2026-05-04 05:27 -26.21956 132.88339 34193 ft 486 kts 122°
2026-05-04 05:28 -26.34093 133.11005 35906 ft 489 kts 122°
2026-05-04 05:29 -26.35834 133.14261 36134 ft 489 kts 122°
2026-05-04 05:29 -26.37577 133.17522 36347 ft 490 kts 122°
2026-05-04 05:29 -26.39324 133.20790 36603 ft 490 kts 122°
2026-05-04 05:29 -26.41068 133.24054 36810 ft 490 kts 122°
2026-05-04 05:31 -26.53390 133.47250 37177 ft 500 kts 122°
2026-05-04 05:31 -26.55138 133.50555 37169 ft 501 kts 122°
2026-05-04 05:32 -26.58679 133.57251 37174 ft 501 kts 122°
2026-05-04 05:33 -26.64013 133.67318 37183 ft 501 kts 122°
2026-05-04 05:33 -26.67569 133.74051 37183 ft 502 kts 122°
2026-05-04 05:34 -26.71086 133.80736 37185 ft 502 kts 122°
2026-05-04 05:34 -26.74625 133.87482 37176 ft 502 kts 122°
2026-05-04 05:35 -26.78164 133.94235 37191 ft 503 kts 122°
2026-05-04 05:35 -26.81705 134.00989 37190 ft 503 kts 122°
2026-05-04 05:36 -26.85242 134.07745 37180 ft 503 kts 122°
2026-05-04 05:36 -26.88777 134.14511 37180 ft 503 kts 122°
2026-05-04 05:37 -26.92313 134.21284 37197 ft 503 kts 122°
2026-05-04 05:37 -26.95816 134.28015 37180 ft 503 kts 121°
2026-05-04 05:38 -27.01112 134.38202 37182 ft 504 kts 121°
2026-05-04 05:38 -27.04643 134.44999 37187 ft 504 kts 121°
2026-05-04 05:39 -27.09912 134.55171 37186 ft 504 kts 121°
2026-05-04 05:40 -27.15187 134.65403 37187 ft 505 kts 121°
2026-05-04 05:40 -27.18706 134.72221 37182 ft 505 kts 121°
2026-05-04 05:41 -27.22230 134.79047 37185 ft 505 kts 121°
2026-05-04 05:41 -27.25745 134.85877 37184 ft 505 kts 121°
2026-05-04 05:42 -27.29254 134.92728 37183 ft 505 kts 121°
2026-05-04 05:42 -27.32760 134.99576 37182 ft 505 kts 121°
2026-05-04 05:43 -27.36268 135.06425 37167 ft 506 kts 121°
2026-05-04 05:45 -27.50273 135.33899 37170 ft 507 kts 121°
2026-05-04 05:47 -27.64336 135.61499 37172 ft 508 kts 121°
2026-05-04 05:47 -27.67868 135.68412 37177 ft 508 kts 121°
2026-05-04 05:48 -27.71390 135.75330 37186 ft 508 kts 121°
2026-05-04 05:48 -27.74908 135.82256 37179 ft 508 kts 121°
2026-05-04 05:49 -27.78397 135.89146 37176 ft 508 kts 121°
2026-05-04 05:49 -27.81931 135.96117 37173 ft 508 kts 121°
2026-05-04 05:51 -27.95924 136.23830 37161 ft 508 kts 120°
2026-05-04 05:52 -27.99418 136.30796 37158 ft 509 kts 120°
2026-05-04 05:52 -28.02909 136.37767 37161 ft 509 kts 120°
2026-05-04 05:54 -28.16880 136.65712 37157 ft 510 kts 120°
2026-05-04 05:55 -28.20329 136.72671 37158 ft 510 kts 120°
2026-05-04 05:55 -28.23810 136.79694 37164 ft 510 kts 120°
2026-05-04 05:56 -28.27284 136.86708 37154 ft 510 kts 120°
2026-05-04 05:56 -28.30747 136.93738 37152 ft 510 kts 120°
2026-05-04 05:57 -28.34216 137.00781 37150 ft 511 kts 120°
2026-05-04 05:57 -28.37681 137.07826 37145 ft 511 kts 120°
2026-05-04 05:58 -28.41142 137.14874 37148 ft 512 kts 120°
2026-05-04 05:58 -28.44604 137.21946 37150 ft 512 kts 120°
2026-05-04 05:59 -28.48040 137.28977 37153 ft 512 kts 119°
2026-05-04 05:59 -28.51527 137.36102 37155 ft 512 kts 120°
2026-05-04 06:00 -28.54965 137.43138 37153 ft 512 kts 119°
2026-05-04 06:00 -28.58409 137.50246 37156 ft 513 kts 119°
2026-05-04 06:01 -28.61858 137.57352 37162 ft 513 kts 119°
2026-05-04 06:03 -28.75068 137.84655 37190 ft 514 kts 119°
2026-05-04 06:05 -28.90487 138.16763 37157 ft 514 kts 118°
2026-05-04 06:06 -28.93906 138.23925 37152 ft 514 kts 118°
2026-05-04 06:06 -28.97336 138.31101 37147 ft 514 kts 118°
2026-05-04 06:07 -29.00765 138.38279 37147 ft 515 kts 118°
2026-05-04 06:07 -29.04190 138.45469 37156 ft 515 kts 118°
2026-05-04 06:08 -29.07595 138.52672 37146 ft 515 kts 118°
2026-05-04 06:08 -29.11001 138.59893 37142 ft 516 kts 118°
2026-05-04 06:09 -29.14420 138.67118 37149 ft 516 kts 118°
2026-05-04 06:11 -29.28046 138.96044 37128 ft 518 kts 118°
2026-05-04 06:13 -29.41684 139.25213 37115 ft 520 kts 118°
2026-05-04 06:14 -29.53551 139.50809 37118 ft 520 kts 118°
2026-05-04 06:15 -29.56945 139.58140 37114 ft 520 kts 118°
2026-05-04 06:15 -29.60332 139.65482 37112 ft 520 kts 117°
2026-05-04 06:16 -29.63709 139.72834 37119 ft 520 kts 117°
2026-05-04 06:16 -29.67092 139.80198 37110 ft 520 kts 117°
2026-05-04 06:17 -29.70470 139.87546 37111 ft 520 kts 117°
2026-05-04 06:17 -29.73843 139.94924 37111 ft 520 kts 117°
2026-05-04 06:18 -29.77210 140.02297 37114 ft 520 kts 117°
2026-05-04 06:20 -29.90631 140.31795 37114 ft 521 kts 117°
2026-05-04 06:21 -29.99006 140.50340 37106 ft 522 kts 117°
2026-05-04 06:22 -30.02352 140.57764 37109 ft 522 kts 117°
2026-05-04 06:25 -30.25714 141.10051 37118 ft 524 kts 117°
2026-05-04 06:26 -30.29051 141.17571 37110 ft 525 kts 117°
2026-05-04 06:26 -30.32391 141.25093 37113 ft 525 kts 117°
2026-05-04 06:27 -30.40693 141.43928 37119 ft 527 kts 116°
2026-05-04 06:28 -30.44023 141.51499 37123 ft 527 kts 116°
2026-05-04 06:28 -30.47343 141.59078 37126 ft 527 kts 116°
2026-05-04 06:29 -30.50663 141.66668 37126 ft 527 kts 116°
2026-05-04 06:29 -30.53983 141.74260 37123 ft 527 kts 116°
2026-05-04 06:30 -30.57291 141.81848 37121 ft 527 kts 116°
2026-05-04 06:30 -30.60598 141.89443 37115 ft 527 kts 116°
2026-05-04 06:31 -30.63878 141.97003 37114 ft 527 kts 116°
2026-05-04 06:31 -30.67172 142.04626 37119 ft 528 kts 116°
2026-05-04 06:33 -30.80353 142.35189 37105 ft 529 kts 116°
2026-05-04 06:34 -30.83620 142.42805 37105 ft 529 kts 116°
2026-05-04 06:34 -30.86909 142.50483 37140 ft 530 kts 116°
2026-05-04 06:36 -30.99983 142.81204 37105 ft 529 kts 116°
2026-05-04 06:37 -31.03472 142.88767 37107 ft 529 kts 120°
2026-05-04 06:37 -31.07257 142.96134 37101 ft 530 kts 122°
2026-05-04 06:38 -31.11036 143.03513 37105 ft 530 kts 120°
2026-05-04 06:40 -31.25648 143.33446 37095 ft 531 kts 120°
2026-05-04 06:40 -31.29313 143.40945 37098 ft 532 kts 120°
2026-05-04 06:41 -31.32974 143.48472 37097 ft 532 kts 120°
2026-05-04 06:41 -31.36634 143.56004 37096 ft 532 kts 120°
2026-05-04 06:42 -31.40280 143.63548 37097 ft 532 kts 120°
2026-05-04 06:44 -31.54861 143.93784 37093 ft 534 kts 119°
2026-05-04 06:44 -31.58502 144.01376 37092 ft 534 kts 119°
2026-05-04 06:45 -31.62136 144.08973 37113 ft 534 kts 119°
2026-05-04 06:45 -31.65148 144.15283 37107 ft 533 kts 119°
2026-05-04 06:46 -31.68774 144.22879 37106 ft 533 kts 119°
2026-05-04 06:46 -31.72980 144.31714 37106 ft 532 kts 119°
2026-05-04 06:48 -31.86797 144.60888 37095 ft 533 kts 119°
2026-05-04 06:50 -32.01146 144.91434 37081 ft 534 kts 119°
2026-05-04 06:51 -32.04726 144.99110 37096 ft 534 kts 119°
2026-05-04 06:51 -32.08308 145.06800 37081 ft 535 kts 119°
2026-05-04 06:52 -32.11892 145.14495 37081 ft 535 kts 118°
2026-05-04 06:52 -32.15468 145.22202 37081 ft 535 kts 118°
2026-05-04 06:53 -32.19045 145.29921 37083 ft 536 kts 118°
2026-05-04 06:53 -32.22624 145.37639 37086 ft 536 kts 118°
2026-05-04 06:54 -32.26194 145.45374 37089 ft 536 kts 118°
2026-05-04 06:54 -32.29762 145.53116 37114 ft 536 kts 118°
2026-05-04 06:55 -32.33297 145.60800 37100 ft 536 kts 118°
2026-05-04 06:55 -32.36851 145.68547 37095 ft 535 kts 118°
2026-05-04 06:57 -32.50993 145.99558 37080 ft 535 kts 118°
2026-05-04 06:58 -32.54518 146.07327 37071 ft 535 kts 118°
2026-05-04 06:58 -32.58036 146.15096 37077 ft 535 kts 118°
2026-05-04 06:59 -32.61554 146.22877 37083 ft 535 kts 118°
2026-05-04 06:59 -32.65074 146.30675 37082 ft 536 kts 118°
2026-05-04 07:01 -32.79064 146.61895 37080 ft 536 kts 118°
2026-05-04 07:02 -32.82566 146.69746 37075 ft 536 kts 118°
2026-05-04 07:02 -32.86039 146.77534 37080 ft 536 kts 118°
2026-05-04 07:03 -32.89530 146.85381 37074 ft 536 kts 118°
2026-05-04 07:03 -32.93013 146.93229 37070 ft 536 kts 118°
2026-05-04 07:04 -32.96488 147.01092 37067 ft 536 kts 118°
2026-05-04 07:04 -32.99956 147.08971 37095 ft 536 kts 117°
2026-05-04 07:05 -33.03413 147.16851 37083 ft 536 kts 117°
2026-05-04 07:05 -33.06870 147.24716 37082 ft 536 kts 118°
2026-05-04 07:06 -33.12033 147.36475 37077 ft 535 kts 117°
2026-05-04 07:07 -33.15479 147.44360 37080 ft 535 kts 117°
2026-05-04 07:09 -33.29186 147.75963 37073 ft 535 kts 117°
2026-05-04 07:09 -33.32603 147.83869 37080 ft 535 kts 117°
2026-05-04 07:10 -33.36146 147.91696 37075 ft 534 kts 125°